Location: Halle (Saale)
(51.4825°N, 11.9705°E)
Time: 11:27:55
(UTC+02:00)

ISS - Visible Passes

Search period start: 13 May 2021 00:00
Search period end: 23 May 2021 00:00
Orbit: 417 x 422 km, 51.6° (Epoch: 13 May)

Date Brightness Start Highest point End Pass type
(mag) Time Alt. Az. Time Alt. Az. Time Alt. Az.
13 May -1.4 00:32:07 14° E 00:32:07 14° E 00:32:44 10° E visible
13 May -3.8 02:05:02 39° W 02:06:11 85° N 02:09:35 10° E visible
13 May -3.8 03:39:38 10° W 03:42:59 63° SSW 03:46:21 10° ESE visible
14 May -3.9 01:18:38 84° W 01:18:44 90° NW 01:22:07 10° E visible
14 May -3.9 02:52:11 10° W 02:55:34 77° SSW 02:58:57 10° ESE visible
14 May -2.7 04:29:12 10° W 04:32:06 26° SSW 04:34:59 10° SSE visible
14 May -2.9 22:51:46 10° SSW 22:54:44 29° SSE 22:55:35 25° ESE visible
15 May -3.9 00:27:56 10° WSW 00:31:17 81° S 00:34:41 10° E visible
15 May -3.9 02:04:45 10° W 02:08:08 88° S 02:11:32 10° E visible
15 May -3.2 03:41:38 10° W 03:44:47 36° SSW 03:47:55 10° SE visible
15 May -2.5 22:04:51 10° SSW 22:07:27 21° SE 22:10:04 10° E visible
15 May -3.9 23:40:31 10° WSW 23:43:52 67° SSE 23:47:14 10° E visible
16 May -3.8 01:17:18 10° W 01:20:41 86° N 01:24:04 10° E visible
16 May -3.6 02:54:09 10° W 02:57:25 48° SSW 03:00:42 10° SE visible
16 May -1.9 04:31:58 10° WSW 04:33:38 13° SW 04:35:19 10° SSW visible
16 May -3.7 22:53:11 10° SW 22:56:28 53° SSE 22:59:47 10° E visible
17 May -3.8 00:29:51 10° W 00:33:14 85° N 00:36:38 10° E visible
17 May -3.9 02:06:41 10° W 02:10:02 63° SSW 02:13:23 10° ESE visible
17 May -2.3 03:43:57 10° W 03:46:25 19° SW 03:48:52 10° S visible
17 May -3.3 22:05:56 10° SW 22:09:06 39° SSE 22:12:17 10° E visible
17 May -3.8 23:42:23 10° W 23:45:46 90° NNW 23:49:10 10° E visible
18 May -3.9 01:19:14 10° W 01:22:37 77° SSW 01:22:56 68° SE visible
18 May -3.9 22:54:57 10° WSW 22:58:19 81° SSE 23:01:43 10° E visible
19 May -3.9 00:31:47 10° W 00:35:10 88° S 00:36:32 34° E visible
19 May -1.6 02:08:40 10° W 02:09:26 15° W 02:09:26 15° W visible
19 May -3.8 22:07:33 10° WSW 22:10:53 68° SSE 22:14:15 10° E visible
19 May -3.8 23:44:20 10° W 23:47:42 86° N 23:50:21 16° E visible
20 May -2.7 01:21:11 10° W 01:23:16 32° WSW 01:23:16 32° WSW visible
20 May -3.8 22:56:51 10° W 23:00:15 85° N 23:03:38 10° E visible
21 May -3.8 00:33:42 10° W 00:37:03 63° SSW 00:37:12 62° S visible
21 May -3.8 22:09:24 10° W 22:12:47 89° NNW 22:16:10 10° E visible
21 May -3.9 23:46:15 10° W 23:49:37 77° SSW 23:51:10 29° ESE visible
22 May -1.5 01:23:15 10° W 01:24:06 15° W 01:24:06 15° W visible
22 May -3.8 22:58:47 10° W 23:02:10 88° S 23:05:10 13° E visible
